TimeEST,TemperatureF,Dew PointF,Humidity,Sea Level PressureIn,VisibilityMPH,Wind Direction,Wind SpeedMPH,Gust SpeedMPH,PrecipitationIn,Events,Conditions,WindDirDegrees,DateUTC
12:00 AM,33.8,21.2,60,30.27,10.0,North,4.6,9.2,N/A,,Clear,10,2004-12-27 05:00:00
12:20 AM,33.8,21.2,60,30.28,10.0,North,3.5,-,N/A,,Clear,360,2004-12-27 05:20:00
12:40 AM,33.8,21.2,60,30.29,10.0,North,5.8,-,N/A,,Clear,360,2004-12-27 05:40:00
1:00 AM,32.0,21.2,64,30.29,10.0,North,4.6,-,N/A,,Clear,10,2004-12-27 06:00:00
1:20 AM,33.8,21.2,60,30.29,10.0,North,4.6,-,N/A,,Clear,350,2004-12-27 06:20:00
1:40 AM,32.0,23.0,69,30.30,10.0,NNW,8.1,-,N/A,,Clear,340,2004-12-27 06:40:00
2:00 AM,32.0,23.0,69,30.30,10.0,NNW,6.9,-,N/A,,Clear,340,2004-12-27 07:00:00
2:20 AM,32.0,23.0,69,30.30,10.0,North,5.8,-,N/A,,Clear,360,2004-12-27 07:20:00
2:40 AM,32.0,23.0,69,30.31,10.0,Calm,Calm,-,N/A,,Clear,0,2004-12-27 07:40:00
3:00 AM,30.2,23.0,75,30.32,10.0,Calm,Calm,-,N/A,,Clear,0,2004-12-27 08:00:00
3:20 AM,28.4,23.0,80,30.32,10.0,Calm,Calm,-,N/A,,Clear,0,2004-12-27 08:20:00
3:40 AM,28.4,21.2,74,30.33,10.0,Calm,Calm,-,N/A,,Clear,0,2004-12-27 08:40:00
4:00 AM,26.6,21.2,80,30.34,10.0,Calm,Calm,-,N/A,,Clear,0,2004-12-27 09:00:00
4:20 AM,26.6,21.2,80,30.34,10.0,Calm,Calm,-,N/A,,Clear,0,2004-12-27 09:20:00
4:40 AM,24.8,21.2,86,30.34,10.0,Calm,Calm,-,N/A,,Clear,0,2004-12-27 09:40:00
5:00 AM,24.8,21.2,86,30.34,10.0,Calm,Calm,-,N/A,,Clear,0,2004-12-27 10:00:00
5:20 AM,24.8,21.2,86,30.34,10.0,Calm,Calm,-,N/A,,Clear,0,2004-12-27 10:20:00
5:40 AM,23.0,19.4,86,30.35,10.0,NE,3.5,-,N/A,,Clear,50,2004-12-27 10:40:00
6:00 AM,23.0,21.2,93,30.36,10.0,Calm,Calm,-,N/A,,Clear,0,2004-12-27 11:00:00
6:20 AM,23.0,19.4,86,30.37,10.0,Calm,Calm,-,N/A,,Clear,0,2004-12-27 11:20:00
6:40 AM,23.0,19.4,86,30.38,10.0,Calm,Calm,-,N/A,,Clear,0,2004-12-27 11:40:00
7:00 AM,21.2,17.6,86,30.39,10.0,Calm,Calm,-,N/A,,Clear,0,2004-12-27 12:00:00
7:20 AM,21.2,19.4,93,30.40,10.0,Calm,Calm,-,N/A,,Clear,0,2004-12-27 12:20:00
7:40 AM,21.2,17.6,86,30.42,10.0,Calm,Calm,-,N/A,,Clear,0,2004-12-27 12:40:00
8:00 AM,21.2,17.6,86,30.42,10.0,Calm,Calm,-,N/A,,Clear,0,2004-12-27 13:00:00
8:40 AM,23.0,21.2,93,30.44,7.0,Calm,Calm,-,N/A,,Clear,0,2004-12-27 13:40:00
9:00 AM,26.6,23.0,86,30.45,10.0,Calm,Calm,-,N/A,,Clear,0,2004-12-27 14:00:00
10:00 AM,32.0,23.0,69,30.47,10.0,SSW,3.5,-,N/A,,Clear,210,2004-12-27 15:00:00
10:20 AM,33.8,23.0,65,30.47,10.0,Calm,Calm,-,N/A,,Clear,0,2004-12-27 15:20:00
10:40 AM,33.8,23.0,65,30.47,10.0,Calm,Calm,-,N/A,,Clear,0,2004-12-27 15:40:00
11:00 AM,35.6,23.0,60,30.47,10.0,Calm,Calm,-,N/A,,Clear,0,2004-12-27 16:00:00
11:20 AM,37.4,21.2,52,30.46,10.0,Calm,Calm,-,N/A,,Clear,0,2004-12-27 16:20:00
11:40 AM,39.2,23.0,52,30.46,10.0,Calm,Calm,-,N/A,,Clear,0,2004-12-27 16:40:00
12:00 PM,41.0,19.4,42,30.45,10.0,Calm,Calm,-,N/A,,Clear,0,2004-12-27 17:00:00
12:20 PM,42.8,17.6,36,30.44,10.0,Calm,Calm,-,N/A,,Clear,0,2004-12-27 17:20:00
12:40 PM,44.6,14.0,29,30.44,10.0,Calm,Calm,-,N/A,,Clear,0,2004-12-27 17:40:00
1:00 PM,46.4,15.8,29,30.43,10.0,East,3.5,-,N/A,,Clear,100,2004-12-27 18:00:00
1:20 PM,46.4,12.2,25,30.42,10.0,Calm,Calm,-,N/A,,Clear,0,2004-12-27 18:20:00
1:40 PM,46.4,10.4,23,30.41,10.0,Calm,Calm,-,N/A,,Clear,0,2004-12-27 18:40:00
2:00 PM,50.0,10.4,20,30.40,10.0,Calm,Calm,-,N/A,,Clear,0,2004-12-27 19:00:00
2:20 PM,50.0,8.6,19,30.40,10.0,Calm,Calm,-,N/A,,Clear,0,2004-12-27 19:20:00
2:40 PM,51.8,5.0,15,30.40,10.0,Calm,Calm,-,N/A,,Clear,0,2004-12-27 19:40:00
3:00 PM,51.8,-4.0,10,30.40,10.0,Calm,Calm,-,N/A,,Clear,0,2004-12-27 20:00:00
3:20 PM,51.8,-4.0,10,30.40,10.0,Calm,Calm,-,N/A,,Clear,0,2004-12-27 20:20:00
3:40 PM,51.8,1.4,13,30.40,10.0,Calm,Calm,-,N/A,,Clear,0,2004-12-27 20:40:00
4:00 PM,51.8,-0.4,12,30.40,10.0,Calm,Calm,-,N/A,,Clear,0,2004-12-27 21:00:00
4:20 PM,51.8,6.8,16,30.41,10.0,Calm,Calm,-,N/A,,Clear,0,2004-12-27 21:20:00
4:40 PM,44.6,21.2,39,30.42,10.0,WSW,3.5,-,N/A,,Clear,240,2004-12-27 21:40:00
5:00 PM,42.8,23.0,46,30.44,10.0,Calm,Calm,-,N/A,,Clear,0,2004-12-27 22:00:00
5:20 PM,37.4,21.2,52,30.44,10.0,WSW,3.5,-,N/A,,Clear,240,2004-12-27 22:20:00
5:40 PM,35.6,24.8,65,30.44,10.0,WSW,3.5,-,N/A,,Clear,240,2004-12-27 22:40:00
6:00 PM,32.0,23.0,69,30.45,10.0,Calm,Calm,-,N/A,,Clear,0,2004-12-27 23:00:00
6:20 PM,32.0,24.8,75,30.46,10.0,Calm,Calm,-,N/A,,Clear,0,2004-12-27 23:20:00
6:40 PM,32.0,23.0,69,30.46,10.0,Calm,Calm,-,N/A,,Clear,0,2004-12-27 23:40:00
7:00 PM,32.0,24.8,75,30.47,10.0,Calm,Calm,-,N/A,,Clear,0,2004-12-28 00:00:00
7:20 PM,30.2,24.8,80,30.47,10.0,Calm,Calm,-,N/A,,Clear,0,2004-12-28 00:20:00
7:40 PM,30.2,23.0,75,30.49,10.0,Calm,Calm,-,N/A,,Clear,0,2004-12-28 00:40:00
8:00 PM,28.4,23.0,80,30.49,10.0,Calm,Calm,-,N/A,,Clear,0,2004-12-28 01:00:00
8:20 PM,28.4,23.0,80,30.50,10.0,Calm,Calm,-,N/A,,Clear,0,2004-12-28 01:20:00
9:00 PM,28.4,23.0,80,30.51,10.0,Calm,Calm,-,N/A,,Clear,0,2004-12-28 02:00:00
9:20 PM,28.4,23.0,80,30.51,10.0,Calm,Calm,-,N/A,,Clear,0,2004-12-28 02:20:00
9:40 PM,26.6,23.0,86,30.51,10.0,Calm,Calm,-,N/A,,Clear,0,2004-12-28 02:40:00
10:00 PM,26.6,23.0,86,30.52,10.0,Calm,Calm,-,N/A,,Clear,0,2004-12-28 03:00:00
10:20 PM,26.6,23.0,86,30.53,10.0,Calm,Calm,-,N/A,,Clear,0,2004-12-28 03:20:00
10:40 PM,26.6,23.0,86,30.53,10.0,Calm,Calm,-,N/A,,Clear,0,2004-12-28 03:40:00
11:00 PM,24.8,21.2,86,30.53,10.0,Calm,Calm,-,N/A,,Clear,0,2004-12-28 04:00:00
11:20 PM,26.6,21.2,80,30.53,10.0,Calm,Calm,-,N/A,,Clear,0,2004-12-28 04:20:00
11:40 PM,26.6,21.2,80,30.53,10.0,Calm,Calm,-,N/A,,Clear,0,2004-12-28 04:40:00